Location: Chandler
(33.3060°N, 111.8410°W)
Time: 11:06:44
(UTC-07:00)

Amateur Radio Satellites - All Passes

Search period start: 01 March 2017 10:36
Search period end: 02 March 2017 10:36
Location: Chandler, 33.3060°N, 111.8410°W

Satellite Date Start Highest point End Downlink Frequencies (MHz)
Time Altitude Azimuth
QB50P2 01 Mar 10:37:25 10:40:36 21° 70° (ENE) 10:43:48 145.880/145.840
ZACube-1 01 Mar 10:40:29 10:41:31 11° 295° (WNW) 10:42:32 437.345
ESTCUBE 1 01 Mar 10:53:55 10:56:33 15° 94° (E) 10:59:09 437.505/2401.250
AIST 2D 01 Mar 10:55:31 10:58:58 52° 76° (ENE) 11:02:27 435.315
LO-87 01 Mar 11:05:30 11:08:58 43° 99° (E) 11:12:26 145.935 - 145.965
YUBILEINY 01 Mar 11:10:53 11:19:18 48° 282° (WNW) 11:27:43 435.215
DUCHIFAT 1 01 Mar 11:33:24 11:37:35 78° 76° (ENE) 11:41:49 145.980
EO-79 01 Mar 11:49:48 11:53:54 52° 260° (W) 11:58:04 145.935-145.965
NANOSAT C BR1 01 Mar 12:04:03 12:07:57 38° 261° (W) 12:11:55 145.865
SPROUT 01 Mar 12:07:51 12:11:30 27° 97° (E) 12:15:08 437.525
POLYITAN 1 01 Mar 12:09:15 12:12:59 30° 263° (W) 12:16:45 437.675
FO-29 01 Mar 12:10:18 12:14:40 17° 271° (W) 12:19:16 435.910
BUGSAT 1 01 Mar 12:11:43 12:15:45 71° 76° (ENE) 12:19:51 437.445
DX 1 01 Mar 12:11:59 12:14:22 14° 94° (E) 12:16:43 434.975-435.025
QB50P2 01 Mar 12:12:42 12:16:13 25° 264° (W) 12:19:45 145.880/145.840
UKube-1 01 Mar 12:16:24 12:16:57 10° 93° (E) 12:17:31 .
Tancredo 1 01 Mar 12:20:33 12:21:45 12° 29° (NNE) 12:22:56 437.200
Gurwin Techsat 1B 01 Mar 12:23:04 12:25:51 15° 64° (ENE) 12:28:40 435.225
ESTCUBE 1 01 Mar 12:29:18 12:33:26 38° 287° (WNW) 12:37:34 437.505/2401.250
VELOX 1 01 Mar 12:34:05 12:38:31 70° 102° (ESE) 12:42:55 145.980
Oscar 19 01 Mar 12:38:00 12:42:43 38° 71° (ENE) 12:47:26 437.125/150
AO-85 01 Mar 12:46:52 12:50:47 81° 62° (ENE) 12:54:50 145.980
50 SAT 01 Mar 12:47:20 12:50:48 73° 101° (ESE) 12:54:15 437.505
ISS 01 Mar 13:41:23 13:44:39 64° 42° (NE) 13:47:54 437.550
SPROUT 01 Mar 13:44:00 13:47:13 21° 290° (WNW) 13:50:25 437.525
DX 1 01 Mar 13:46:35 13:50:38 39° 287° (WNW) 13:54:41 434.975-435.025
UKube-1 01 Mar 13:49:01 13:53:13 52° 286° (WNW) 13:57:24 .
Tancredo 1 01 Mar 13:55:09 13:58:22 79° 225° (SW) 14:01:34 437.200
Gurwin Techsat 1B 01 Mar 14:00:01 14:05:14 60° 259° (W) 14:10:30 435.225
ITUPSAT 1 01 Mar 14:08:16 14:10:24 13° 93° (E) 14:12:31 437.325
BEESAT 01 Mar 14:11:13 14:13:48 14° 94° (E) 14:16:22 436.000
Oscar 19 01 Mar 14:18:19 14:22:04 20° 265° (W) 14:25:50 437.125/150
BEESAT 3 01 Mar 14:23:40 14:27:35 51° 59° (ENE) 14:31:28 437.485
AO-7 01 Mar 14:24:02 14:31:45 43° 65° (ENE) 14:39:28 .
NO-84 01 Mar 14:25:05 14:27:09 17° 123° (ESE) 14:29:18 435.350 FM
ITAMSAT 1 01 Mar 15:00:37 15:05:50 90° 53° (NE) 15:11:05 435.822/435.867
BEESAT 2 01 Mar 15:12:25 15:16:28 74° 61° (ENE) 15:20:29 435.950
PCSat 01 Mar 15:13:03 15:18:26 81° 114° (ESE) 15:23:53 145.827
MOZHAYETS 4 01 Mar 15:25:49 15:29:59 34° 98° (E) 15:34:07
ITUPSAT 1 01 Mar 15:43:49 15:48:27 51° 286° (WNW) 15:53:04 437.325
RS-15 01 Mar 15:43:52 15:54:30 42° 106° (ESE) 16:05:31 29.354- 29.394
BEESAT 01 Mar 15:47:12 15:51:45 46° 287° (WNW) 15:56:17 436.000
NO-84 01 Mar 16:02:02 16:04:34 23° 319° (NW) 16:07:18 435.350 FM
AO-7 01 Mar 16:16:55 16:24:27 37° 260° (W) 16:32:02 .
CUBESAT XI-V 01 Mar 16:38:08 16:42:13 31° 97° (E) 16:46:17 437.345
CUTE-I 01 Mar 16:46:07 16:48:56 15° 64° (ENE) 16:51:46 437.470
XW-2F 01 Mar 16:51:37 16:52:17 10° 68° (ENE) 16:52:57 145.980 - 146.000
XW-2D 01 Mar 16:57:53 16:59:53 14° 69° (ENE) 17:01:55 145.860 - 145.880
KKS-1 01 Mar 16:57:58 17:02:28 89° 74° (ENE) 17:06:56 437.445
PCSat 01 Mar 17:00:00 17:02:28 13° 311° (NW) 17:04:56 145.827
XW-2B 01 Mar 17:02:43 17:05:02 15° 70° (ENE) 17:07:21 145.730 - 145.750
MOZHAYETS 4 01 Mar 17:03:43 17:06:50 18° 292° (WNW) 17:09:58
NUDT-PHONESAT 01 Mar 17:06:18 17:08:12 13° 69° (ENE) 17:10:05 437.300
XW-2C 01 Mar 17:10:59 17:13:49 20° 71° (ENE) 17:16:41 145.795 - 145.815
STARS 01 Mar 17:18:22 17:22:47 64° 101° (ESE) 17:27:10 437.465
LilacSat-2 01 Mar 17:32:14 17:35:51 39° 74° (ENE) 17:39:29 437.200
HO-68 01 Mar 17:39:05 17:42:43 15° 58° (ENE) 17:46:20 435.675
M-CUBED/EXP-1 PRIME 01 Mar 17:42:33 17:46:26 44° 105° (ESE) 17:50:35 437.505
RS-15 01 Mar 17:55:03 18:06:35 54° 306° (NW) 18:18:37 29.354- 29.394
DOVE 4 01 Mar 17:56:39 18:00:46 88° 258° (WSW) 18:04:59 437.250
KAITUO 1B 01 Mar 18:09:06 18:12:53 82° 257° (WSW) 18:16:43 145.475/437.950
CUTE 1.7 + AOD 2 01 Mar 18:09:50 18:10:52 11° 67° (ENE) 18:11:54 437.475
JUGNU 01 Mar 18:13:40 18:16:06 13° 165° (SSE) 18:18:31 437.505
CUBESAT XI-V 01 Mar 18:16:01 18:19:20 20° 291° (WNW) 18:22:40 437.345
XW-2F 01 Mar 18:22:20 18:25:59 43° 261° (W) 18:29:40 145.980 - 146.000
CUTE-I 01 Mar 18:23:09 18:28:24 60° 259° (W) 18:33:42 437.470
XW-2D 01 Mar 18:30:19 18:33:45 31° 262° (W) 18:37:14 145.860 - 145.880
XW-2A 01 Mar 18:33:35 18:36:30 27° 74° (ENE) 18:39:27 145.665 - 145.685
XW-2B 01 Mar 18:35:37 18:38:57 28° 263° (W) 18:42:18 145.730 - 145.750
NUDT-PHONESAT 01 Mar 18:38:26 18:41:48 31° 262° (W) 18:45:11 437.300
XW-2C 01 Mar 18:44:53 18:47:52 21° 264° (W) 18:50:52 145.795 - 145.815
SEEDS 01 Mar 18:55:01 18:58:27 24° 71° (ENE) 19:01:52 437.485
STRAND 1 01 Mar 19:01:49 19:06:01 25° 96° (E) 19:10:12 437.568
LilacSat-2 01 Mar 19:09:23 19:10:16 11° 267° (W) 19:11:09 437.200
CUBEBUG 2 01 Mar 19:16:23 19:20:17 30° 71° (ENE) 19:24:18 437.445
M-CUBED/EXP-1 PRIME 01 Mar 19:18:39 19:20:34 13° 295° (WNW) 19:22:33 437.505
HO-68 01 Mar 19:22:15 19:29:27 89° 261° (W) 19:36:39 435.675
YUBILEINY 01 Mar 19:35:03 19:36:08 10° 63° (ENE) 19:37:14 435.215
CUTE 1.7 + AOD 2 01 Mar 19:42:01 19:46:11 52° 260° (W) 19:50:22 437.475
UWE-3 01 Mar 19:42:58 19:47:04 37° 73° (ENE) 19:51:18 435.000/436.395/437.385
ZACube-1 01 Mar 19:52:59 19:56:46 28° 71° (ENE) 20:00:38 437.345
JUGNU 01 Mar 20:00:16 20:04:25 20° 174° (S) 20:08:33 437.505
AAUSAT CUBESAT 2 01 Mar 20:03:57 20:08:06 82° 78° (ENE) 20:12:15 437.432
XW-2A 01 Mar 20:08:10 20:09:19 11° 266° (W) 20:10:27 145.665 - 145.685
RS-15 01 Mar 20:15:44 20:22:56 17° 334° (NNW) 20:30:13 29.354- 29.394
SEEDS 01 Mar 20:30:47 20:34:02 21° 264° (W) 20:37:16 437.485
AO-73 01 Mar 20:37:38 20:42:06 85° 81° (E) 20:46:41 145.935
Oscar 11 01 Mar 20:38:10 20:42:30 74° 76° (ENE) 20:46:50 .
STRAND 1 01 Mar 20:40:39 20:45:07 31° 290° (WNW) 20:49:35 437.568
DELFI C3 01 Mar 20:52:34 20:55:57 28° 73° (ENE) 20:59:21 145.870
CUBEBUG 2 01 Mar 20:53:37 20:56:53 20° 266° (W) 21:00:14 437.445
SRMSAT 01 Mar 21:09:59 21:13:11 15° 167° (SSE) 21:16:23 437.500
SO-50 01 Mar 21:14:14 21:18:55 72° 299° (WNW) 21:23:34 436.795
HO-68 01 Mar 21:15:24 21:17:52 12° 269° (W) 21:20:20 435.675
UWE-3 01 Mar 21:20:48 21:23:37 16° 267° (W) 21:26:29 435.000/436.395/437.385
YUBILEINY 01 Mar 21:25:46 21:34:30 72° 82° (E) 21:43:08 435.215
ZACube-1 01 Mar 21:29:31 21:32:58 22° 265° (W) 21:36:29 437.345
FO-29 01 Mar 21:40:11 21:43:24 13° 87° (E) 21:46:26 435.910
O/OREOS (USA 219) 01 Mar 21:45:56 21:50:21 71° 108° (ESE) 21:54:51 437.305
JUGNU 01 Mar 21:48:34 21:52:46 20° 185° (S) 21:56:59 437.505
PRISM 01 Mar 21:58:52 22:02:57 87° 102° (ESE) 22:07:04 437.425
TIGRISAT 01 Mar 22:05:30 22:09:49 36° 98° (E) 22:14:01 435.000
UNISAT 6 01 Mar 22:06:43 22:11:08 41° 98° (E) 22:15:26 437.425
DELFI C3 01 Mar 22:28:19 22:30:44 16° 265° (W) 22:33:10 145.870
NO-84 01 Mar 22:38:14 22:41:51 30° 42° (NE) 22:45:38 435.350 FM
RS-15 01 Mar 22:38:27 22:43:25 13° 13° (NNE) 22:48:20 29.354- 29.394
SRMSAT 01 Mar 22:57:17 23:01:41 21° 176° (S) 23:06:06 437.500
SPROUT 01 Mar 22:58:53 23:00:41 12° 67° (ENE) 23:02:30 437.525
LO-87 01 Mar 23:10:47 23:14:04 37° 261° (W) 23:17:23 145.935 - 145.965
50 SAT 01 Mar 23:18:38 23:20:33 14° 70° (ENE) 23:22:27 437.505
FO-29 01 Mar 23:21:57 23:29:20 82° 284° (WNW) 23:35:48 435.910
DUCHIFAT 1 01 Mar 23:22:38 23:25:25 17° 95° (E) 23:28:11 145.980
ESTCUBE 1 01 Mar 23:23:57 23:28:27 72° 259° (WSW) 23:32:57 437.505/2401.250
YUBILEINY 01 Mar 23:24:40 23:30:17 19° 279° (W) 23:35:56 435.215
VELOX 1 01 Mar 23:27:17 23:31:16 35° 72° (ENE) 23:35:15 145.980
JUGNU 01 Mar 23:38:18 23:41:06 14° 194° (SSW) 23:43:53 437.505
EO-79 01 Mar 23:38:39 23:42:31 32° 98° (E) 23:46:22 145.935-145.965
TIGRISAT 01 Mar 23:43:01 23:46:08 18° 292° (WNW) 23:49:13 435.000
UNISAT 6 01 Mar 23:44:35 23:47:26 16° 293° (WNW) 23:50:14 437.425
NANOSAT C BR1 01 Mar 23:52:08 23:56:14 44° 100° (E) 00:00:16 145.865
POLYITAN 1 01 Mar 23:57:33 00:01:48 57° 100° (E) 00:05:59 437.675
AIST 2D 01 Mar 23:57:48 00:01:18 64° 283° (WNW) 00:04:47 435.315
BUGSAT 1 01 Mar 23:58:56 00:01:17 14° 94° (E) 00:03:37 437.445
QB50P2 02 Mar 00:00:44 00:05:01 69° 102° (ESE) 00:09:14 145.880/145.840
PCSat 02 Mar 00:05:37 00:10:13 27° 56° (NE) 00:14:47 145.827
NO-84 02 Mar 00:15:50 00:19:30 29° 235° (SW) 00:23:18 435.350 FM
SPROUT 02 Mar 00:32:05 00:36:09 45° 261° (W) 00:40:15 437.525
DX 1 02 Mar 00:37:20 00:41:38 79° 256° (WSW) 00:45:59 434.975-435.025
UKube-1 02 Mar 00:38:51 00:43:07 74° 76° (ENE) 00:47:25 .
SRMSAT 02 Mar 00:45:59 00:50:14 20° 187° (S) 00:54:29 437.500
RS-15 02 Mar 00:50:22 01:01:24 36° 46° (NE) 01:11:58 29.354- 29.394
50 SAT 02 Mar 00:50:32 00:53:24 24° 263° (W) 00:56:18 437.505
Oscar 19 02 Mar 00:54:31 00:58:02 18° 95° (E) 01:01:32 437.125/150
DUCHIFAT 1 02 Mar 00:57:20 01:01:05 31° 288° (WNW) 01:04:50 145.980
VELOX 1 02 Mar 01:05:08 01:07:47 16° 266° (W) 01:10:26 145.980
FO-29 02 Mar 01:10:00 01:12:58 13° 303° (WNW) 01:15:50 435.910
ITUPSAT 1 02 Mar 01:13:10 01:13:33 10° 63° (ENE) 01:13:56 437.325
BEESAT 02 Mar 01:15:08 01:16:31 11° 64° (ENE) 01:17:53 436.000
EO-79 02 Mar 01:15:13 01:17:59 17° 291° (WNW) 01:20:44 145.935-145.965
NANOSAT C BR1 02 Mar 01:29:36 01:31:30 13° 293° (WNW) 01:33:23 145.865
BUGSAT 1 02 Mar 01:32:48 01:36:43 36° 287° (WNW) 01:40:37 437.445
PCSat 02 Mar 01:48:43 01:53:35 34° 251° (WSW) 01:58:25 145.827
Gurwin Techsat 1B 02 Mar 02:20:21 02:25:41 77° 103° (ESE) 02:30:59 435.225
MOZHAYETS 4 02 Mar 02:24:02 02:27:30 21° 69° (ENE) 02:30:58
AO-7 02 Mar 02:32:26 02:37:02 16° 93° (E) 02:41:36 .
Oscar 19 02 Mar 02:32:40 02:37:27 41° 288° (WNW) 02:42:14 437.125/150
SRMSAT 02 Mar 02:36:26 02:38:44 12° 196° (SSW) 02:41:01 437.500
ITUPSAT 1 02 Mar 02:45:55 02:50:42 72° 258° (WSW) 02:55:32 437.325
BEESAT 02 Mar 02:48:56 02:53:40 65° 258° (WSW) 02:58:27 436.000
AO-85 02 Mar 02:56:43 03:01:22 76° 116° (ESE) 03:05:42 145.980
RS-15 02 Mar 03:02:38 03:14:39 66° 248° (WSW) 03:26:04 29.354- 29.394
ITAMSAT 1 02 Mar 03:17:52 03:22:52 45° 100° (E) 03:27:50 435.822/435.867
CUBESAT XI-V 02 Mar 03:37:54 03:41:16 20° 69° (ENE) 03:44:37 437.345
KKS-1 02 Mar 03:51:43 03:55:57 47° 74° (ENE) 04:00:12 437.445
MOZHAYETS 4 02 Mar 04:00:21 04:04:25 30° 263° (W) 04:08:31
Gurwin Techsat 1B 02 Mar 04:03:22 04:04:54 11° 297° (WNW) 04:06:26 435.225
BEESAT 3 02 Mar 04:10:14 04:13:18 23° 111° (ESE) 04:16:26 437.485
STARS 02 Mar 04:10:58 04:14:51 32° 71° (ENE) 04:18:45 437.465
AO-7 02 Mar 04:22:11 04:30:31 85° 288° (WNW) 04:38:48 .
M-CUBED/EXP-1 PRIME 02 Mar 04:26:12 04:28:44 21° 67° (ENE) 04:31:16 437.505
AO-85 02 Mar 04:41:25 04:42:08 10° 311° (NW) 04:42:51 145.980
ISS 02 Mar 04:43:18 04:45:14 15° 127° (SE) 04:47:11 437.550
Tancredo 1 02 Mar 04:54:10 04:56:40 21° 129° (SE) 04:59:10 437.200
ITAMSAT 1 02 Mar 04:58:24 05:01:57 19° 294° (WNW) 05:05:27 435.822/435.867
BEESAT 2 02 Mar 05:00:01 05:03:34 34° 113° (ESE) 05:07:10 435.950
CUBESAT XI-V 02 Mar 05:14:13 05:18:23 32° 263° (W) 05:22:32 437.345
KKS-1 02 Mar 05:31:03 05:32:42 12° 267° (W) 05:34:23 437.445
KAITUO 1B 02 Mar 05:46:15 05:47:59 13° 94° (E) 05:49:42 145.475/437.950
BEESAT 3 02 Mar 05:47:42 05:50:47 22° 306° (NW) 05:53:56 437.485
STARS 02 Mar 05:48:20 05:51:13 17° 265° (W) 05:54:07 437.465
SO-50 02 Mar 05:49:51 05:53:51 31° 55° (NE) 05:57:49 436.795
DOVE 4 02 Mar 05:58:41 06:03:15 36° 98° (E) 06:07:59 437.250
XW-2F 02 Mar 05:59:02 06:02:08 24° 96° (E) 06:05:11 145.980 - 146.000
M-CUBED/EXP-1 PRIME 02 Mar 06:01:33 06:03:12 13° 260° (W) 06:04:51 437.505
XW-2D 02 Mar 06:06:49 06:10:16 32° 98° (E) 06:13:40 145.860 - 145.880
XW-2B 02 Mar 06:11:56 06:15:28 36° 98° (E) 06:18:58 145.730 - 145.750
NUDT-PHONESAT 02 Mar 06:13:01 06:16:20 30° 97° (E) 06:19:37 437.300
STRAND 1 02 Mar 06:13:49 06:17:53 24° 68° (ENE) 06:21:58 437.568
AO-7 02 Mar 06:17:32 06:22:04 16° 305° (NW) 06:26:35 .
ISS 02 Mar 06:18:22 06:21:27 37° 320° (NW) 06:24:34 437.550
XW-2C 02 Mar 06:20:41 06:24:23 50° 99° (E) 06:28:03 145.795 - 145.815
Tancredo 1 02 Mar 06:29:58 06:32:48 27° 323° (NW) 06:35:38 437.200
BEESAT 2 02 Mar 06:38:51 06:41:25 16° 308° (NW) 06:44:01 435.950
LilacSat-2 02 Mar 06:43:26 06:47:14 72° 283° (WNW) 06:51:00 437.200
CUTE-I 02 Mar 06:44:19 06:49:43 78° 103° (ESE) 06:55:04 437.470
HO-68 02 Mar 06:55:55 07:01:10 22° 95° (E) 07:06:23 435.675
KAITUO 1B 02 Mar 07:18:45 07:22:03 30° 287° (WNW) 07:25:19 145.475/437.950
SO-50 02 Mar 07:30:41 07:34:05 21° 250° (WSW) 07:37:29 436.795
CUTE 1.7 + AOD 2 02 Mar 07:31:07 07:34:58 34° 98° (E) 07:38:46 437.475
XW-2A 02 Mar 07:31:42 07:35:05 54° 100° (E) 07:38:27 145.665 - 145.685
XW-2F 02 Mar 07:33:34 07:36:04 17° 290° (WNW) 07:38:33 145.980 - 146.000
DOVE 4 02 Mar 07:36:58 07:40:40 21° 290° (WNW) 07:44:29 437.250
UWE-3 02 Mar 07:39:31 07:40:28 11° 91° (E) 07:41:25 435.000/436.395/437.385
XW-2D 02 Mar 07:42:22 07:44:06 13° 291° (WNW) 07:45:51 145.860 - 145.880
XW-2B 02 Mar 07:47:59 07:49:16 11° 292° (WNW) 07:50:34 145.730 - 145.750
NUDT-PHONESAT 02 Mar 07:48:05 07:49:57 13° 291° (WNW) 07:51:49 437.300
AAUSAT CUBESAT 2 02 Mar 07:51:18 07:53:58 17° 94° (E) 07:56:37 437.432
STRAND 1 02 Mar 07:52:16 07:56:50 32° 262° (W) 08:01:27 437.568
O/OREOS (USA 219) 02 Mar 07:59:57 08:04:32 68° 70° (ENE) 08:09:06 437.305
SEEDS 02 Mar 08:17:28 08:21:39 85° 105° (ESE) 08:25:47 437.485
CUTE-I 02 Mar 08:27:22 08:29:01 11° 298° (WNW) 08:30:40 437.470
YUBILEINY 02 Mar 08:29:50 08:34:07 15° 79° (E) 08:38:24 435.215
Oscar 11 02 Mar 08:30:31 08:33:31 18° 95° (E) 08:36:30 .
AO-73 02 Mar 08:30:39 08:34:09 22° 95° (E) 08:37:34 145.935
HO-68 02 Mar 08:42:12 08:49:11 58° 289° (WNW) 08:56:08 435.675
PRISM 02 Mar 08:44:09 08:47:47 32° 72° (ENE) 08:51:25 437.425
CUBEBUG 2 02 Mar 08:47:06 08:51:49 68° 284° (WNW) 08:56:24 437.445
TIGRISAT 02 Mar 09:00:32 09:03:50 20° 69° (ENE) 09:07:10 435.000
UNISAT 6 02 Mar 09:01:46 09:05:16 22° 69° (ENE) 09:08:50 437.425
CUTE 1.7 + AOD 2 02 Mar 09:07:59 09:10:28 16° 291° (WNW) 09:12:57 437.475
UWE-3 02 Mar 09:12:42 09:17:14 56° 285° (WNW) 09:21:38 435.000/436.395/437.385
ZACube-1 02 Mar 09:20:51 09:25:22 80° 281° (WNW) 09:29:44 437.345
AAUSAT CUBESAT 2 02 Mar 09:25:53 09:29:24 29° 288° (WNW) 09:32:57 437.432
FO-29 02 Mar 09:28:11 09:34:29 32° 66° (ENE) 09:41:08 435.910
Oscar 11 02 Mar 10:05:54 10:09:38 29° 288° (WNW) 10:13:20 .
AO-73 02 Mar 10:06:35 10:10:17 26° 289° (WNW) 10:13:55 145.935
DELFI C3 02 Mar 10:07:40 10:11:36 86° 104° (ESE) 10:15:32 145.870
PRISM 02 Mar 10:20:50 10:23:07 15° 265° (W) 10:25:24 437.425
EO-79 02 Mar 10:28:12 10:30:35 15° 68° (ENE) 10:33:00 145.935-145.965
AIST 2D 02 Mar 10:28:37 10:31:22 21° 72° (ENE) 10:34:08 435.315
